Weather History for KAGC - February, 2014

Change the Weather History Date:

Sunday, February 23, 2014

  Actual Average Record
Temperature  
Mean Temperature 38 °F -  
Max Temperature 45 °F 42 °F 61 °F (1992)
Min Temperature 30 °F 25 °F 3 °F (2015)
Degree Days  
Heating Degree Days 26    
Moisture  
Dew Point 28 °F    
Average Humidity 71    
Maximum Humidity 86    
Minimum Humidity 52    
Precipitation  
Precipitation 0.01 in - - ()
Sea Level Pressure  
Sea Level Pressure 30.02 in    
Wind  
Wind Speed 3 mph (West)    
Max Wind Speed 9 mph    
Max Gust Speed 20 mph    
Visibility 10 miles    
Events Rain , Snow    
Averages and records for this station are not official NWS values.
T = Trace of Precipitation, MM = Missing Value Source: NWS Daily Summary

Daily Weather History Graph

Daily Weather History Graph

Search for Another Location

Airport or City:

Trip Planner

Search our weather history database for the weather conditions in past years. The results will help you decide how hot, cold, wet, or windy it might be!

Date:

Astronomy

Feb. 23, 2014 Rise Set
Actual Time 7:02 AM EST 6:04 PM EST
Civil Twilight 6:34 AM EST 6:32 PM EST
Nautical Twilight 6:03 AM EST 7:03 PM EST
Astronomical Twilight 5:31 AM EST 7:35 PM EST
Moon 1:59 AM EST (2/23) 12:04 PM EST (2/23)
Length of Visible Light 11h 57m
Length of Day
11h 02m
Last Quarter, 39% of the Moon is Illuminated
Feb 23
Last Quarter
Mar 1
New
Mar 8
First Quarter
Mar 16
Full
Mar 23
Last Quarter

Hourly Weather History & Observations

Time (EST) Temp. Windchill Dew Point Humidity Pressure Visibility Wind Dir Wind Speed Gust Speed Precip Events Conditions
12:53 AM 37.0 °F 34.5 °F 27.0 °F 67% 30.04 in 10.0 mi North 3.5 mph - N/A   Clear
1:44 AM 37.4 °F 34.9 °F 28.4 °F 70% 30.01 in 10.0 mi Variable 3.5 mph - N/A   Mostly Cloudy
1:53 AM 36.0 °F 33.3 °F 27.0 °F 70% 30.04 in 10.0 mi North 3.5 mph - N/A   Scattered Clouds
2:53 AM 36.0 °F - 28.0 °F 73% 30.05 in 10.0 mi Calm Calm - N/A   Partly Cloudy
3:53 AM 37.0 °F - 28.0 °F 70% 30.04 in 10.0 mi Calm Calm - N/A   Partly Cloudy
4:53 AM 37.9 °F - 28.9 °F 70% 30.04 in 10.0 mi Calm Calm - N/A   Scattered Clouds
5:05 AM 37.4 °F - 28.4 °F 70% 30.01 in 10.0 mi Calm Calm - N/A   Mostly Cloudy
5:38 AM 35.6 °F 31.7 °F 28.4 °F 75% 30.00 in 10.0 mi SE 4.6 mph - N/A   Mostly Cloudy
5:53 AM 35.1 °F 32.2 °F 28.0 °F 76% 30.04 in 10.0 mi SE 3.5 mph - N/A   Mostly Cloudy
6:53 AM 35.1 °F 31.0 °F 28.0 °F 76% 30.01 in 10.0 mi SE 4.6 mph - N/A   Mostly Cloudy
7:08 AM 33.8 °F 30.8 °F 28.4 °F 81% 29.98 in 9.0 mi SSE 3.5 mph - N/A   Scattered Clouds
7:31 AM 35.6 °F - 28.4 °F 75% 30.00 in 8.0 mi Calm Calm - N/A   Mostly Cloudy
7:53 AM 35.1 °F - 28.9 °F 78% 30.04 in 8.0 mi Calm Calm - N/A   Overcast
8:12 AM 35.6 °F - 28.4 °F 75% 30.02 in 9.0 mi Calm Calm - N/A   Overcast
8:53 AM 37.9 °F - 30.9 °F 76% 30.06 in 7.0 mi Calm Calm - N/A   Overcast
9:53 AM 39.0 °F - 30.0 °F 70% 30.05 in 10.0 mi Calm Calm - N/A   Overcast
10:53 AM 43.0 °F 41.3 °F 30.0 °F 60% 30.04 in 10.0 mi Variable 3.5 mph - N/A   Mostly Cloudy
11:53 AM 44.1 °F 41.5 °F 28.0 °F 53% 30.03 in 10.0 mi North 4.6 mph - N/A   Mostly Cloudy
12:53 PM 44.1 °F 41.5 °F 28.9 °F 55% 30.01 in 10.0 mi Variable 4.6 mph - N/A   Overcast
1:53 PM 45.0 °F 41.8 °F 28.0 °F 52% 29.98 in 10.0 mi West 5.8 mph - N/A   Overcast
2:53 PM 43.0 °F 39.5 °F 28.0 °F 56% 29.99 in 10.0 mi WNW 5.8 mph - N/A   Overcast
3:24 PM 39.2 °F 33.0 °F 30.2 °F 70% 29.96 in 10.0 mi NW 9.2 mph 17.3 mph 0.00 in Rain Light Rain
3:53 PM 37.0 °F 33.3 °F 32.0 °F 82% 30.02 in 5.0 mi WSW 4.6 mph - 0.01 in Snow Light Snow
4:08 PM 37.4 °F 32.8 °F 32.0 °F 81% 29.98 in 10.0 mi SW 5.8 mph - 0.00 in   Overcast
4:53 PM 37.9 °F 32.7 °F 33.1 °F 83% 30.02 in 10.0 mi West 6.9 mph - 0.00 in   Overcast
5:53 PM 37.9 °F 34.4 °F 33.1 °F 83% 30.03 in 10.0 mi WSW 4.6 mph - N/A   Overcast
6:53 PM 37.0 °F 33.3 °F 33.1 °F 86% 30.03 in 10.0 mi SW 4.6 mph - N/A   Overcast
7:53 PM 37.0 °F 33.3 °F 33.1 °F 86% 30.02 in 10.0 mi SW 4.6 mph - N/A   Mostly Cloudy
8:53 PM 36.0 °F 31.1 °F 30.0 °F 79% 30.02 in 10.0 mi WSW 5.8 mph - N/A   Clear
9:53 PM 34.0 °F 28.8 °F 23.0 °F 64% 30.03 in 10.0 mi WNW 5.8 mph - N/A   Clear
10:53 PM 32.0 °F 24.8 °F 18.0 °F 56% 30.04 in 10.0 mi NW 8.1 mph - N/A   Clear
11:53 PM 30.0 °F 21.7 °F 15.1 °F 54% 30.04 in 10.0 mi WNW 9.2 mph 19.6 mph N/A   Partly Cloudy